Location: Knowlton
(51.2333°N, 1.2667°E)
Time: 04:36:06
(UTC+00:00)

SPOT 3 Rocket - Pass Details

Date: 18 April 2021
Orbit: 778 x 795 km, 98.7° (Epoch: 06 May)

Event Time Altitude Azimuth Distance (km) Brightness Sun altitude
Exits shadow 20:03:45 - 151° (SSE) 2,405 5.5 -10.3°
Reaches altitude 10° 20:03:53 10° 151° (SSE) 2,351 5.5 -10.3°
Maximum altitude 20:09:01 66° 70° (ENE) 859 3.6 -11.0°
Drops below altitude 10° 20:14:10 10° 349° (N) 2,356 6.7 -11.6°
Sets 20:16:31 0° 347° (NNW) 3,287 7.6 -11.9°
